Theta_e
322 322 322 323 323 324 324 324 325 325 326 326 326 327 326 326 327 327 327 327 327 327 327 327 328 329 329 330 329 329 325 317 317 316 314 319 322 334 337 338 336 333 332 326 320 315 309 310 309 312 313 313 314 312 319 316 316 313 302 298 295 297 297 302 302 301 303 300 299 300 301 301 299 300 303 304 302 301 302 302 304 305 305 304 305 306 305 303
321 321 321 322 322 323 323 323 324 325 325 325 326 326 326 326 326 326 326 327 327 327 327 328 328 328 330 330 330 326 322 326 316 315 314 335 337 335 337 334 335 335 334 319 315 311 309 309 309 310 309 308 322 311 313 314 316 306 301 300 295 300 301 302 302 302 299 300 303 302 301 301 300 301 301 299 298 299 299 301 302 302 303 301 303 303 301 302
320 320 320 321 322 322 322 323 324 324 324 325 325 325 326 325 325 326 326 326 327 326 327 327 328 328 329 330 328 323 324 324 316 312 316 327 336 336 338 336 336 336 327 320 318 312 310 310 310 309 308 305 311 307 312 310 309 305 302 296 299 305 302 304 305 303 304 303 301 301 301 300 302 302 302 299 298 299 298 298 299 300 301 300 301 302 301 300
320 320 320 320 321 321 322 322 323 324 324 325 324 324 325 324 325 326 326 326 326 326 326 326 327 327 328 329 329 326 327 324 310 314 317 332 333 335 336 334 336 334 326 319 317 312 312 311 310 309 309 303 306 310 306 309 305 305 300 297 300 303 300 302 303 304 303 302 301 300 303 300 301 302 300 299 296 298 300 302 301 301 302 302 301 301 300 300
320 320 320 320 320 321 321 322 322 323 323 324 324 324 324 325 325 325 326 326 325 326 326 325 326 327 328 328 326 326 327 307 309 316 323 329 333 333 331 335 330 326 323 318 313 310 310 310 309 310 308 302 305 306 305 307 308 308 302 303 303 303 300 303 302 301 301 301 300 299 298 299 303 302 300 299 296 296 300 303 304 304 304 304 300 301 300 299
320 320 320 320 320 320 321 321 322 323 323 324 324 324 324 324 324 325 325 325 326 325 325 326 326 327 328 327 324 327 319 295 321 323 325 327 329 329 332 327 331 327 320 313 310 310 310 309 308 307 303 302 302 302 304 306 308 297 301 303 304 304 301 303 303 301 300 300 298 298 300 302 300 299 301 300 299 301 304 304 304 305 306 306 303 302 300 299
319 319 319 319 319 320 320 321 322 322 323 323 322 323 323 324 324 324 324 324 325 325 325 326 326 326 326 326 323 322 314 308 323 325 325 327 324 331 326 329 327 325 316 310 308 307 308 307 307 304 303 302 303 302 305 305 306 301 298 301 302 303 301 303 302 299 299 299 299 301 300 299 299 296 301 300 302 304 305 305 305 303 305 304 301 302 300 300
320 320 319 319 319 319 319 321 321 321 322 322 322 322 323 323 324 324 324 325 325 325 325 325 326 326 324 329 329 312 311 309 317 322 320 327 326 321 327 323 318 320 311 307 307 306 307 305 304 307 303 301 303 303 304 305 302 299 299 301 302 301 302 302 299 297 299 299 299 301 297 298 299 299 300 300 302 304 304 305 303 303 303 303 302 301 301 300
320 320 319 319 319 318 319 320 320 321 321 322 322 322 323 324 323 324 324 324 325 325 325 325 325 326 323 321 317 309 304 323 315 316 320 320 315 317 321 317 313 313 309 308 308 308 310 306 305 308 300 302 305 303 303 300 297 301 301 302 302 301 303 300 300 300 299 300 300 297 297 299 300 301 298 301 302 304 304 303 303 302 301 302 302 301 301 301
320 319 320 319 319 318 319 319 320 321 321 321 321 322 322 323 323 323 324 324 324 325 324 326 325 324 321 321 316 302 319 312 316 316 314 315 314 313 312 319 311 309 307 307 307 307 306 308 315 313 313 303 305 302 304 301 298 300 300 300 299 300 301 301 300 301 300 299 299 297 297 298 300 299 295 301 303 304 303 303 304 301 301 301 302 302 302 302
320 320 319 319 318 318 319 319 319 320 321 321 321 321 322 322 322 322 323 324 324 324 325 325 325 322 323 315 308 301 321 322 316 312 313 316 312 311 318 319 317 314 309 309 307 309 312 310 317 313 311 301 303 302 301 302 301 301 300 298 298 299 300 301 301 300 299 298 299 298 296 298 298 298 297 301 302 302 302 302 303 302 300 300 301 301 302 302
321 320 320 319 318 318 318 318 319 319 320 320 320 321 321 322 322 322 323 324 324 324 325 325 324 324 319 315 307 310 312 316 317 313 313 314 319 320 321 316 313 320 316 307 310 319 320 319 316 307 298 307 299 302 301 300 301 300 298 295 297 299 299 300 299 300 300 298 299 299 295 294 295 294 299 301 301 301 300 301 301 302 302 300 300 301 300 301
321 321 320 319 319 318 318 318 318 319 319 319 319 320 321 321 321 322 322 323 323 324 326 324 321 323 323 307 312 315 313 314 317 316 318 317 316 315 317 319 319 317 317 311 316 320 319 315 317 306 308 304 301 297 301 301 301 300 298 296 296 296 295 300 302 301 298 298 299 298 286 292 295 297 300 302 301 300 299 299 299 300 300 300 300 300 300 301
321 320 320 319 319 319 318 318 318 319 319 319 319 320 320 320 321 322 322 322 324 326 326 326 327 320 315 305 318 315 314 316 315 317 316 317 315 319 320 321 320 317 319 318 316 313 316 308 315 307 313 302 299 306 301 301 300 294 298 298 291 290 291 299 301 299 297 297 298 298 288 291 296 298 300 302 301 300 298 298 298 300 300 299 299 299 300 300
321 320 320 319 319 319 318 319 319 319 318 319 319 319 320 320 320 321 322 322 325 325 326 323 321 322 307 306 310 315 322 314 309 315 317 311 313 316 317 314 317 317 313 314 315 315 312 316 314 304 299 305 305 299 296 297 298 296 292 289 292 290 293 297 299 298 296 296 298 296 288 291 296 298 300 302 300 300 298 298 298 299 300 300 299 299 300 300
321 320 320 319 319 319 318 318 318 318 318 319 319 318 319 319 320 321 322 322 322 322 326 323 322 316 306 300 316 321 319 307 308 317 312 319 318 315 314 315 316 316 310 307 314 311 310 315 304 302 302 301 298 295 294 293 294 296 292 289 291 293 294 296 297 297 298 295 296 296 290 293 294 297 299 299 300 299 298 298 298 299 300 300 299 299 299 300
321 320 320 319 319 319 318 318 318 318 318 318 318 319 319 319 320 322 323 321 321 322 327 320 314 311 299 314 312 307 308 314 316 317 314 313 317 318 312 314 310 309 314 310 313 314 308 305 306 301 303 298 297 297 289 288 289 291 294 291 294 292 294 291 294 296 297 295 292 295 292 293 296 296 298 298 299 298 297 298 299 299 299 299 299 299 299 299
321 321 320 320 319 319 318 319 318 318 318 318 318 318 317 320 323 319 320 318 326 324 321 324 317 312 302 307 302 304 313 311 317 317 316 309 314 313 313 306 311 309 310 305 311 303 305 299 301 295 297 296 296 293 289 285 289 290 290 289 291 293 295 294 293 294 295 295 293 292 291 293 295 297 298 298 298 298 298 298 298 299 299 300 300 300 299 299
321 320 320 320 320 319 319 318 319 319 318 318 319 321 323 324 321 321 320 317 311 311 304 304 306 294 295 306 308 308 317 316 315 313 307 309 317 314 313 310 311 304 301 299 299 300 303 301 304 296 292 293 294 294 293 293 294 293 293 292 292 290 292 293 297 295 296 292 292 292 291 292 294 296 298 299 300 299 299 298 299 299 299 300 300 300 299 299
321 321 320 320 320 319 319 319 319 319 318 315 314 315 320 316 314 309 309 312 304 304 305 306 306 307 309 304 310 312 313 317 306 309 312 316 310 310 305 305 309 308 299 296 301 298 304 293 291 290 293 295 297 297 297 298 297 296 295 293 292 292 293 296 297 295 296 292 292 292 293 293 295 296 297 299 299 298 298 298 298 298 298 299 299 300 300 299
320 320 320 320 319 319 318 319 319 318 318 314 313 311 300 304 299 297 300 304 309 309 305 305 307 305 305 313 311 306 306 306 308 309 311 314 313 303 300 301 300 297 298 299 301 302 304 293 293 296 297 298 298 299 298 298 297 295 294 292 292 292 291 295 295 294 295 292 289 293 293 293 295 296 297 298 298 297 298 298 298 299 300 300 299 299 300 300
320 320 320 319 319 319 319 319 319 318 317 315 314 310 307 304 308 308 301 297 305 308 308 307 306 304 306 306 313 312 308 301 305 308 313 311 306 299 300 299 297 294 299 299 298 296 293 292 296 298 300 299 299 298 297 296 295 295 292 292 290 291 294 296 295 292 293 291 289 291 291 292 295 296 298 298 298 299 299 299 299 299 299 300 300 299 298 298
320 320 320 320 319 319 319 319 318 318 314 313 308 308 307 307 311 312 307 302 297 303 303 306 304 303 303 306 310 309 301 298 297 306 306 308 303 300 300 296 296 297 298 298 293 292 290 294 298 300 300 298 297 297 295 295 295 292 291 287 288 292 290 288 292 292 291 291 289 290 290 291 294 296 297 298 299 299 300 301 301 301 299 299 300 300 299 298
319 319 319 319 319 318 319 319 318 317 314 311 309 307 309 309 309 309 307 299 295 300 302 304 305 304 302 302 308 303 299 299 299 299 308 305 301 302 301 298 296 296 294 296 296 294 293 297 299 300 299 297 295 296 294 292 291 293 293 291 290 291 293 292 292 290 292 292 292 289 288 289 292 292 294 297 298 298 299 299 300 300 300 301 301 301 301 299
319 319 319 318 318 319 318 318 314 311 311 310 310 308 310 309 309 308 303 296 296 297 313 311 311 309 305 309 307 301 301 301 301 309 307 305 301 299 297 301 298 294 295 296 297 296 295 299 300 296 296 297 296 293 294 293 290 291 294 293 293 293 292 293 294 293 289 288 289 290 284 285 290 293 294 296 294 295 296 296 297 298 299 299 299 300 300 302
319 318 318 318 318 318 318 313 312 311 309 307 305 308 307 310 309 307 303 292 288 298 301 296 309 302 312 302 306 304 299 296 305 307 307 308 308 302 299 296 298 293 295 295 295 295 295 298 298 296 295 294 295 293 294 296 291 288 290 296 295 294 293 293 292 292 283 282 289 291 281 283 288 290 292 293 291 293 294 295 297 298 298 298 298 299 299 301
319 319 319 318 318 318 311 308 313 312 307 308 310 309 309 309 311 305 297 290 285 297 295 307 303 303 311 306 303 301 290 293 305 306 305 309 302 310 297 295 297 297 299 301 294 291 297 294 294 296 295 294 292 292 295 295 291 288 291 293 295 294 292 293 292 290 288 291 292 290 289 282 284 289 293 294 292 292 293 294 295 296 297 298 298 298 298 301
319 319 319 319 318 316 312 312 311 307 307 310 312 308 310 307 310 306 294 280 281 303 299 296 306 312 308 302 308 297 294 298 296 299 300 305 302 302 298 295 295 295 296 295 285 297 296 293 293 293 291 289 291 294 296 296 292 291 292 295 293 294 293 292 291 287 286 284 282 285 289 282 283 287 293 294 291 292 293 294 295 296 296 297 298 299 298 300
319 319 318 318 318 317 316 311 310 307 311 313 311 310 309 311 303 299 290 279 300 300 308 299 312 308 301 303 299 298 295 298 294 296 303 304 304 300 294 295 296 295 296 296 290 294 296 295 297 296 291 289 294 290 292 297 292 294 293 294 293 293 291 291 286 285 284 282 280 284 288 281 283 289 288 290 291 291 292 294 296 297 297 297 298 298 299 300
319 319 319 318 316 314 312 313 310 315 312 311 311 307 309 304 302 289 284 276 301 292 300 302 300 297 299 295 295 297 294 295 294 297 299 297 300 303 297 299 297 294 292 295 294 294 295 293 296 295 293 295 289 289 292 291 293 295 295 293 291 290 286 286 286 284 282 279 282 286 288 286 281 286 287 287 289 292 293 294 295 296 296 296 297 298 299 299
319 319 319 317 313 316 315 309 312 315 313 311 309 308 308 303 291 284 279 290 297 299 301 297 296 300 295 294 291 296 296 294 293 295 293 298 295 297 296 292 300 291 287 287 289 293 292 293 291 293 297 293 294 290 292 293 294 294 288 287 287 284 284 283 282 283 277 279 283 286 288 288 279 281 289 294 295 295 295 294 294 295 296 297 297 298 300 300
318 319 320 316 317 320 310 308 311 315 312 310 309 306 300 288 291 281 283 298 292 295 294 294 299 297 295 297 296 294 292 294 294 293 291 289 288 290 290 288 288 283 283 284 285 288 288 290 293 294 295 296 291 291 289 291 291 291 286 285 281 280 281 278 279 275 276 278 282 285 288 283 284 289 291 292 292 294 295 296 295 295 296 296 297 299 301 299
318 317 318 317 316 315 315 315 314 312 312 310 306 302 292 286 279 287 287 294 291 298 296 302 296 297 297 295 294 297 298 292 295 292 296 293 290 291 293 292 293 289 284 286 285 286 287 290 292 293 291 294 294 287 284 283 285 288 285 282 280 276 276 274 277 279 280 283 286 285 288 284 288 290 295 293 294 295 296 295 295 296 296 296 298 300 300 299
319 318 315 316 317 317 318 315 314 313 311 308 300 294 289 282 281 296 291 291 295 299 302 301 298 297 297 292 295 297 290 298 293 292 294 290 289 287 291 293 294 292 290 287 283 284 282 285 289 291 287 294 294 293 292 289 284 287 289 287 284 282 277 273 277 276 278 281 281 284 282 278 278 284 294 297 298 296 296 297 294 294 294 295 296 299 298 297
319 318 318 316 315 317 318 315 314 313 310 303 297 291 283 281 287 287 288 293 295 298 297 299 297 294 294 294 299 298 297 292 294 293 291 290 286 286 289 290 293 294 291 284 287 285 287 287 292 296 293 294 291 295 296 292 286 286 288 290 283 283 285 282 283 282 279 278 278 279 278 281 286 291 293 296 297 297 295 296 295 295 295 297 297 298 298 297
316 316 318 313 312 315 318 314 313 312 307 298 290 285 283 287 285 291 291 298 300 296 296 296 298 292 289 290 296 295 300 293 295 292 289 290 292 290 292 292 292 294 291 287 288 283 286 284 292 293 292 291 288 293 295 296 283 285 287 282 286 290 288 283 283 284 281 279 280 283 283 287 292 293 295 294 292 293 294 293 293 294 295 296 296 296 297 297
313 315 310 313 313 316 316 313 312 309 304 297 288 283 289 289 294 294 297 297 296 295 296 288 291 290 289 288 290 293 294 294 291 289 287 291 289 293 292 294 297 295 296 293 287 293 286 288 290 290 288 288 288 288 291 291 292 286 281 284 291 291 288 283 277 281 278 276 280 284 281 283 283 282 289 291 291 292 292 293 295 295 295 294 296 296 296 297
313 312 312 313 315 317 315 312 310 306 300 294 286 290 294 290 297 295 297 295 296 296 292 290 291 295 290 290 289 292 294 291 291 289 286 291 287 296 293 293 298 297 297 298 291 289 292 285 288 287 287 289 290 291 290 292 292 286 284 289 284 280 278 282 281 274 274 275 277 281 283 283 285 286 289 286 289 290 293 294 294 294 293 293 294 296 296 295
312 310 305 313 318 316 313 312 308 302 296 288 286 287 294 294 299 297 297 297 298 295 290 292 290 294 294 290 291 294 293 287 291 288 286 288 287 295 294 296 295 298 298 298 292 289 290 286 286 285 287 288 287 287 281 283 289 290 290 285 287 282 280 279 281 281 279 277 276 278 281 280 288 287 288 288 290 291 293 292 292 293 293 294 294 296 296 296
308 304 302 315 317 315 312 310 303 299 292 285 288 288 298 293 297 298 298 298 296 293 291 291 293 289 291 291 293 291 294 292 291 290 290 290 291 298 294 298 296 296 298 298 294 296 287 287 283 285 284 288 281 283 283 286 284 283 284 281 284 282 284 282 282 281 280 277 277 276 277 283 288 289 290 290 292 292 292 291 292 293 293 294 295 296 296 297
311 303 303 313 315 313 311 304 296 291 289 289 292 291 294 293 297 298 300 301 297 300 294 292 291 289 290 289 289 292 290 292 291 289 290 291 291 287 297 297 300 295 296 296 293 290 287 285 285 283 281 283 287 289 289 290 291 288 287 285 286 283 280 278 278 284 281 281 277 277 277 284 291 292 291 291 293 293 291 292 293 293 293 293 294 293 294 295
304 295 301 312 313 311 304 293 292 294 289 287 289 293 292 299 295 296 297 298 298 294 295 293 293 291 290 290 290 290 289 287 289 289 291 290 295 293 298 301 301 299 294 288 291 295 292 286 287 285 287 288 291 293 292 292 291 290 289 286 289 286 285 282 277 280 281 282 284 284 281 283 291 293 291 292 292 293 293 293 293 293 293 293 294 295 296 296
300 297 308 310 312 309 301 293 294 292 289 292 297 296 297 296 296 298 296 297 294 298 295 293 292 291 292 291 291 289 290 287 289 287 290 289 292 296 298 300 304 298 298 287 293 289 293 286 284 285 289 289 287 287 288 288 290 287 286 287 285 284 286 284 284 284 283 283 281 282 279 283 292 291 292 290 290 291 293 293 293 294 295 294 294 294 295 295
301 301 302 309 312 308 299 288 288 289 290 294 294 293 298 296 296 294 295 297 295 294 294 293 294 295 291 294 290 289 293 284 289 289 288 291 289 298 296 295 296 294 294 289 289 293 287 285 286 282 282 282 286 287 285 284 285 283 283 285 288 289 287 287 287 286 283 284 284 282 277 282 291 291 293 290 290 291 291 291 292 292 292 293 293 295 295 295
300 303 302 303 308 306 296 298 295 291 290 290 291 290 292 293 296 297 296 295 298 295 293 291 295 294 292 293 292 292 292 290 285 289 289 288 289 295 294 295 295 293 292 292 293 294 288 286 285 280 277 275 275 277 279 281 280 282 284 285 287 287 287 285 282 284 280 283 285 282 281 287 292 292 291 291 292 292 292 291 290 292 292 293 293 293 294 294
294 288 298 297 301 300 299 301 298 296 291 289 288 290 293 290 295 298 297 296 299 297 296 293 291 295 292 290 288 288 289 292 288 286 286 286 289 291 292 293 294 292 292 293 292 291 285 284 285 284 282 281 283 284 287 287 284 281 282 284 285 287 289 288 287 283 281 284 283 284 285 285 287 290 292 293 294 293 294 295 294 290 290 292 292 293 294 294
297 292 292 288 297 296 295 298 295 296 293 295 287 291 289 291 293 294 299 292 297 296 295 295 291 289 287 290 288 288 289 288 289 288 287 287 288 289 292 291 291 292 293 292 291 290 285 283 286 285 284 285 287 287 289 289 285 286 285 286 287 286 286 285 284 282 287 284 280 286 288 285 286 290 291 292 293 294 295 295 295 296 293 291 292 293 293 292
288 292 298 299 293 287 289 290 296 294 296 296 292 295 292 291 291 289 295 297 297 298 292 291 294 293 292 291 290 286 288 288 287 286 288 288 288 289 289 291 290 293 292 288 290 287 284 283 286 285 284 287 288 288 289 288 287 287 287 287 286 287 287 284 284 287 287 283 281 286 288 285 287 290 292 293 294 294 294 295 296 296 296 294 291 290 290 290
293 293 296 299 290 293 294 293 295 294 293 294 292 293 291 292 290 293 292 292 294 293 296 288 290 293 293 293 290 287 289 285 285 288 287 288 287 287 286 288 290 292 291 289 288 287 286 283 286 286 285 286 286 287 288 287 287 286 286 286 287 287 286 287 286 287 287 285 287 287 287 287 290 291 293 294 295 295 296 297 297 296 295 295 292 291 291 289
287 291 288 290 289 288 289 290 291 291 289 293 289 290 292 291 291 294 295 293 289 292 297 292 293 294 293 292 291 288 289 291 290 288 290 289 287 288 287 289 287 286 288 287 287 286 288 282 289 285 283 283 286 287 287 286 285 284 286 287 287 287 287 287 287 287 287 286 287 287 286 286 291 294 294 295 296 296 296 295 295 295 295 295 294 293 292 291
294 295 293 286 282 285 289 290 289 288 286 288 288 289 291 290 291 295 294 298 294 291 294 292 294 293 292 292 292 291 293 293 293 293 294 293 288 291 289 285 293 285 285 284 287 285 288 284 288 285 282 280 285 285 285 286 285 284 284 285 285 286 284 286 285 287 286 285 286 286 284 285 290 294 294 294 294 294 293 294 295 295 295 295 293 291 291 291
294 297 295 290 282 287 285 288 288 288 284 289 290 290 291 290 294 294 290 295 297 298 297 296 295 294 292 292 291 293 296 296 295 296 297 297 298 296 296 293 293 290 285 285 287 285 285 284 283 283 280 279 285 286 284 284 283 280 281 285 286 287 288 288 289 289 289 289 285 283 284 290 292 293 292 292 293 293 293 294 294 295 295 294 292 292 292 293
Wind_Speed
13 14 14 15 16 16 16 16 16 16 16 17 17 17 16 16 15 14 14 14 14 14 13 13 13 12 10 10 9 6 8 1 4 5 6 4 7 5 8 8 8 5 5 2 3 3 5 7 7 5 4 3 2 2 2 2 1 1 2 2 5 6 7 2 1 1 1 0 3 3 4 2 3 2 2 1 2 3 2 5 3 3 3 5 3 7 11 12
14 14 14 15 15 15 15 15 16 16 16 16 16 16 17 17 16 15 14 13 13 13 14 14 13 12 12 9 8 6 4 3 7 8 12 4 9 9 8 8 5 7 5 1 4 6 5 8 8 7 4 3 3 2 5 1 2 3 2 3 6 4 2 1 2 3 3 2 1 3 3 2 3 7 2 2 3 6 6 8 5 5 4 8 5 11 12 12
13 14 15 14 15 15 15 15 15 15 15 16 16 16 16 16 16 16 15 15 13 13 13 14 14 12 11 10 8 4 2 3 7 13 5 2 6 4 8 7 8 6 3 2 3 4 5 6 5 5 4 4 4 3 3 2 3 5 2 4 7 2 4 3 0 2 1 3 3 3 4 4 3 2 3 3 4 5 11 8 6 9 10 9 9 11 11 11
13 13 14 14 15 15 15 15 15 15 15 15 16 15 15 15 15 15 16 16 15 14 13 13 13 12 11 9 8 6 2 3 6 1 4 4 4 4 4 6 7 5 3 2 5 5 3 4 4 5 3 5 3 5 3 3 2 3 4 4 4 0 3 2 3 1 1 3 3 4 1 1 3 2 4 3 4 9 10 10 11 13 13 11 13 12 11 12
14 14 15 15 15 15 15 14 14 15 15 15 15 16 15 14 15 15 15 15 16 15 13 13 13 12 9 9 9 3 2 3 2 3 4 5 4 3 2 3 5 3 4 2 3 4 5 5 3 3 3 3 5 4 4 4 7 2 6 6 7 5 2 2 3 6 2 3 1 3 5 4 3 4 6 5 7 10 7 7 12 12 12 11 14 14 12 13
15 15 15 16 16 15 15 14 14 15 15 15 16 16 15 15 14 14 14 15 15 15 14 13 12 11 9 8 5 2 1 2 2 2 2 2 4 3 2 2 2 3 2 3 4 3 3 4 3 2 2 3 4 6 4 8 6 4 6 9 12 11 6 1 1 2 2 1 3 2 3 4 4 3 5 8 13 13 2 2 3 2 8 10 18 15 13 14
15 16 16 16 17 17 17 16 16 16 16 16 16 16 17 16 15 15 15 15 14 14 15 13 12 10 9 7 3 2 5 5 2 2 1 2 3 5 3 3 1 0 2 3 5 3 4 5 5 4 4 6 9 8 6 5 3 4 6 5 8 6 5 5 1 5 2 3 4 2 3 2 3 9 4 10 15 15 8 3 2 2 6 9 15 15 18 18
14 13 13 13 16 17 17 17 16 16 17 17 17 17 16 17 16 16 16 16 15 14 14 13 11 8 7 2 1 2 4 6 3 2 3 3 4 4 4 2 3 1 3 4 4 5 4 6 5 4 6 6 2 3 3 1 6 4 8 5 6 1 3 3 3 3 4 5 4 2 3 8 6 7 3 15 13 11 10 10 4 3 5 7 12 14 13 13
11 12 12 12 13 14 15 16 16 17 17 17 18 18 18 16 16 16 16 17 16 15 14 12 10 5 1 1 2 5 7 1 0 6 5 4 5 4 3 3 4 3 2 4 4 5 3 2 6 1 2 5 3 7 1 2 5 6 9 5 5 5 4 4 5 5 5 3 4 4 10 8 8 7 13 21 14 10 5 6 6 5 5 8 11 13 13 13
12 13 12 12 13 15 17 17 17 17 18 17 18 18 18 18 17 16 16 16 16 14 14 11 7 5 1 1 2 4 1 5 3 3 4 4 5 4 3 2 4 4 4 4 4 4 4 2 1 1 2 5 7 9 2 4 3 1 3 4 6 8 8 5 7 6 6 6 5 8 9 9 6 6 11 10 14 11 11 11 8 7 8 9 8 10 12 13
12 13 14 13 14 16 18 19 19 19 19 19 19 18 17 18 18 17 16 16 16 14 11 8 2 1 1 2 4 7 1 1 1 3 4 2 5 5 2 3 1 2 5 4 4 3 1 3 1 1 1 3 4 5 4 2 2 4 3 5 9 12 12 12 9 9 4 5 8 7 9 5 2 2 16 15 1 6 11 12 11 10 9 9 9 9 9 11
12 13 13 15 15 17 18 19 20 19 19 20 20 19 18 18 18 17 16 16 16 12 9 5 3 2 2 5 6 6 2 2 1 3 3 4 2 2 1 2 1 2 2 4 5 2 1 0 0 2 3 2 3 6 3 4 2 3 3 6 9 9 11 10 13 11 8 6 8 6 3 9 8 11 19 21 6 3 5 7 9 11 10 8 8 9 8 12
9 12 13 14 15 16 17 18 19 19 19 21 21 21 21 19 17 17 16 16 11 11 9 2 3 2 1 5 7 1 4 2 1 4 3 2 3 1 1 1 3 2 3 3 1 0 1 0 1 4 3 3 3 5 0 0 2 3 4 5 12 9 11 14 11 11 9 4 9 7 4 9 12 21 19 19 8 8 6 7 7 7 8 7 8 9 10 9
8 9 11 13 13 14 15 17 18 18 19 20 21 21 22 21 17 16 15 14 15 10 5 6 3 2 2 6 1 3 2 1 3 3 4 4 5 2 2 2 3 3 1 2 2 0 0 0 0 4 1 3 4 4 4 1 2 3 6 5 6 5 7 6 8 10 10 4 11 4 6 10 10 12 20 15 9 11 12 10 8 8 8 7 8 10 11 12
8 7 10 13 13 12 12 15 17 18 19 20 21 22 22 22 18 16 14 12 5 5 4 2 2 1 3 4 4 2 2 1 3 3 4 5 3 2 3 3 1 0 1 2 1 0 0 0 0 1 2 1 2 3 4 4 5 4 2 5 4 7 8 3 2 15 12 2 7 5 6 13 13 14 8 13 9 11 10 8 8 9 9 10 10 11 12 13
8 8 9 10 13 13 13 15 16 17 19 21 22 23 22 20 15 12 11 8 9 7 4 2 2 1 4 8 1 3 1 3 2 3 1 1 2 2 4 3 3 2 3 1 1 1 1 1 3 1 1 0 3 3 4 4 6 6 8 5 6 6 8 5 5 6 6 5 6 13 8 3 6 4 2 4 9 9 8 8 9 11 12 11 11 11 11 11
8 9 9 9 13 13 14 15 15 17 18 20 23 24 20 18 12 10 6 5 4 3 2 1 1 5 4 1 3 2 4 2 1 1 2 0 1 1 4 3 2 3 1 2 2 0 2 2 1 1 3 6 4 3 3 5 9 5 6 8 7 7 5 6 2 3 6 8 7 12 9 14 9 3 2 3 5 8 8 9 9 9 8 10 10 11 12 13
9 9 9 9 12 13 15 14 17 18 19 20 22 22 17 17 10 1 3 2 2 2 3 2 2 1 8 3 8 4 4 4 3 3 3 1 1 1 3 3 1 3 3 2 1 2 3 3 4 3 2 5 5 6 6 9 8 4 3 4 6 7 11 9 5 4 6 7 5 7 12 17 12 9 10 6 6 8 11 9 8 11 10 11 12 10 11 13
9 9 9 10 11 12 14 16 16 18 19 23 23 23 15 6 1 4 2 3 3 1 0 4 4 6 5 4 4 5 0 3 3 4 3 3 2 2 1 2 1 4 3 3 2 7 3 3 1 2 7 9 10 12 13 14 8 9 9 9 7 7 7 8 8 3 12 8 9 10 12 14 16 14 13 14 11 12 13 10 11 12 12 13 13 12 10 11
9 10 10 11 11 12 14 15 17 17 20 16 11 10 1 1 1 1 2 5 8 11 9 4 14 6 1 4 4 1 2 3 3 5 4 3 5 3 3 3 1 2 4 4 3 6 5 6 7 9 14 12 11 12 13 13 11 12 10 8 10 8 9 12 13 5 8 4 11 14 14 13 16 13 10 11 10 9 10 9 10 9 12 14 13 12 12 12
9 9 10 9 10 12 16 15 15 16 17 10 10 5 4 4 5 5 2 7 11 9 11 10 11 14 9 4 4 6 3 4 3 4 4 3 1 8 5 4 4 4 8 6 4 0 0 7 10 16 18 11 9 9 12 13 13 14 11 8 10 6 14 12 11 3 5 6 5 9 10 13 16 13 11 11 11 15 14 13 14 15 16 16 14 13 13 12
9 9 9 9 9 14 16 15 15 15 16 8 4 5 2 3 1 2 1 8 6 13 15 13 6 7 2 5 5 4 5 2 4 5 1 5 5 7 4 9 8 10 4 5 5 1 7 12 15 16 12 8 10 10 7 7 8 7 6 5 7 10 11 12 7 4 1 4 7 7 11 13 16 14 13 13 15 13 11 13 16 15 17 15 14 12 9 6
9 8 9 8 9 12 15 15 16 17 7 5 3 7 3 2 2 2 2 6 12 11 11 9 12 12 11 3 3 2 6 11 14 8 10 6 5 9 5 8 9 8 5 10 11 9 9 10 17 12 10 11 11 7 5 6 7 7 6 5 11 9 6 9 2 2 3 5 2 3 9 9 11 14 18 19 19 17 15 17 18 17 17 17 17 13 7 6
9 8 9 9 9 12 15 15 18 10 1 4 6 3 2 2 3 4 3 5 7 6 12 14 15 12 13 12 6 10 13 8 7 10 8 11 10 4 4 10 9 7 10 12 16 15 17 5 4 12 13 13 14 8 5 5 11 7 9 8 10 10 11 9 4 3 4 6 4 5 10 11 11 16 15 16 16 15 15 13 15 16 14 15 14 9 7 8
9 8 8 7 8 10 15 15 5 4 4 6 1 2 1 2 1 3 1 6 5 5 1 2 2 4 8 6 5 8 7 7 9 1 9 12 9 5 7 4 4 11 10 12 13 16 17 10 2 2 1 5 5 6 6 6 13 8 7 12 15 14 13 10 9 4 3 4 5 2 9 9 9 17 18 10 1 8 9 11 14 16 15 14 12 13 8 6
9 8 7 6 8 10 15 6 2 6 8 2 2 3 2 2 3 1 1 3 12 2 3 7 5 5 5 4 4 5 8 7 0 2 9 5 2 5 3 6 6 12 10 11 13 9 6 2 9 11 7 6 5 6 5 6 12 9 5 9 14 13 8 8 8 3 5 6 2 1 2 16 5 7 6 2 5 8 5 9 13 13 14 13 10 10 7 9
9 7 6 5 5 7 6 2 4 7 5 3 2 3 2 2 2 4 1 4 12 5 7 1 1 1 3 1 6 5 3 5 2 4 5 2 6 1 6 7 4 4 1 0 2 7 4 2 3 2 5 7 6 8 10 10 9 10 1 1 0 1 5 4 4 6 7 2 2 4 1 9 21 12 6 9 7 7 8 10 12 12 13 13 12 10 6 9
8 7 6 5 4 2 3 5 7 6 3 1 2 3 2 2 2 2 1 7 6 5 3 3 1 3 2 1 2 8 1 1 2 3 3 2 1 2 6 13 11 8 4 3 14 0 3 3 6 7 5 4 9 14 3 10 8 2 1 3 2 1 0 1 1 4 3 4 7 7 5 4 14 4 12 12 9 11 14 12 13 15 14 12 14 15 6 11
9 8 6 5 5 2 3 4 4 6 2 1 2 2 1 1 1 1 1 9 1 2 4 3 3 1 2 2 1 1 1 0 2 3 2 1 3 1 7 9 7 6 5 12 15 4 2 3 4 7 6 9 7 2 1 3 9 1 1 4 2 1 1 1 1 1 3 2 12 8 10 6 21 15 3 6 13 14 13 15 17 15 14 12 12 13 8 8
11 10 8 7 4 2 4 3 6 0 3 2 1 2 2 1 1 1 3 11 2 3 3 1 1 4 5 6 3 3 5 0 3 1 2 2 3 1 1 1 0 5 7 5 8 7 2 3 0 2 8 4 4 3 3 3 1 2 0 1 2 0 2 0 1 1 3 10 16 10 12 11 14 11 9 8 9 12 11 9 9 11 10 8 9 12 9 9
13 12 11 12 5 2 1 6 2 3 2 0 1 2 1 1 2 2 15 4 4 1 2 2 3 9 9 8 5 9 5 2 2 4 2 1 1 2 1 1 0 2 2 4 8 8 1 2 0 3 4 4 4 2 2 0 1 1 1 1 1 4 2 1 1 2 3 16 6 14 15 16 14 3 2 13 12 15 14 13 14 12 12 11 7 9 10 9
15 15 15 11 6 4 5 1 5 2 2 3 1 0 1 2 2 11 10 5 4 3 7 4 3 5 8 9 6 7 8 4 5 6 8 6 5 9 11 11 6 3 5 6 8 1 9 13 3 3 4 9 3 2 1 1 1 3 4 2 3 4 1 2 3 2 6 14 1 10 12 5 23 17 0 3 3 10 10 10 12 12 10 9 8 9 9 8
16 16 18 13 9 7 9 3 5 3 3 3 2 1 1 2 9 16 8 3 3 3 1 4 7 10 5 6 5 4 3 4 6 6 5 3 5 8 5 8 5 4 5 2 8 2 7 2 7 6 4 6 7 8 1 2 7 8 7 7 5 4 4 6 5 5 6 8 8 6 12 14 12 7 12 10 9 10 11 9 8 10 10 10 10 8 7 8
16 15 11 11 12 10 5 7 5 5 2 0 5 3 1 3 14 8 7 7 8 2 3 0 4 5 5 9 5 8 4 4 8 6 9 3 6 5 6 12 8 6 3 1 1 4 4 9 9 9 5 9 15 14 17 9 8 15 5 10 11 9 3 3 5 10 9 9 1 1 6 7 2 7 12 20 18 12 11 11 9 6 7 8 6 6 7 6
16 14 11 7 9 9 8 7 8 5 4 6 3 5 8 15 12 5 2 0 3 4 1 1 3 6 6 4 1 7 7 3 7 5 7 7 6 5 8 10 15 6 1 1 4 1 10 14 3 18 0 10 14 14 8 3 1 4 3 1 3 10 2 11 10 8 5 5 6 4 7 2 7 1 6 9 14 13 8 12 9 7 6 3 5 7 8 7
9 8 8 4 6 10 10 8 9 7 7 9 7 6 15 13 4 4 4 2 1 3 1 1 0 5 5 4 1 3 4 4 5 4 3 8 9 9 6 3 11 18 10 10 4 4 0 9 3 5 4 8 5 1 7 6 5 2 8 7 11 1 5 5 6 6 3 4 18 4 8 13 8 18 19 14 7 9 9 9 7 8 9 7 7 6 6 8
5 1 4 7 10 10 12 11 10 9 4 8 9 12 14 9 12 8 3 2 1 7 0 6 4 5 3 5 5 7 4 1 3 5 5 3 7 11 5 9 11 15 17 11 4 6 7 8 2 4 3 2 1 2 4 4 2 7 2 6 0 2 3 2 3 1 3 7 13 7 13 16 9 17 3 9 14 12 10 12 14 15 13 8 8 7 8 9
2 3 6 10 10 10 11 10 11 7 5 6 12 17 5 13 11 13 9 14 13 9 9 5 4 9 6 6 5 6 5 10 6 4 4 8 7 9 12 4 13 15 22 15 9 3 4 10 4 1 3 2 3 1 5 0 0 4 5 2 3 3 2 3 1 5 6 9 7 9 17 15 17 20 10 2 11 13 15 16 15 14 9 7 7 9 7 6
2 2 5 9 11 15 12 11 10 11 7 7 8 12 5 13 4 4 7 6 5 6 8 6 8 4 6 7 7 3 9 8 7 8 4 4 9 6 10 9 6 16 18 19 10 4 1 8 3 3 2 1 2 2 6 4 2 2 2 3 1 1 3 6 8 3 3 12 5 15 15 17 13 7 6 6 10 11 15 15 11 10 10 9 9 9 8 8
3 3 6 2 13 14 15 12 7 7 4 10 11 11 0 3 6 10 13 11 3 3 4 10 8 13 12 14 8 8 5 11 6 7 8 3 9 3 4 9 5 9 16 18 12 8 6 3 11 1 5 0 3 6 8 10 10 4 1 4 1 2 2 2 3 6 8 8 9 9 13 19 5 2 5 6 12 11 11 8 7 8 8 10 10 11 9 8
2 4 2 4 9 13 13 9 6 9 8 3 5 10 11 7 2 2 5 10 10 9 12 9 6 7 5 6 11 7 7 5 5 5 4 5 6 6 3 7 4 5 3 0 7 4 2 3 13 3 1 8 14 5 12 11 12 11 14 15 16 9 4 5 14 3 5 7 7 7 16 17 11 3 3 6 11 11 7 10 9 8 10 9 7 6 6 6
3 6 1 8 13 18 15 8 5 4 2 9 14 9 8 6 9 12 7 5 4 3 3 3 9 13 13 16 13 12 9 7 4 4 3 7 3 7 3 6 5 8 9 6 11 10 10 4 7 11 12 16 16 12 9 11 6 6 9 11 11 10 8 9 15 8 3 5 5 9 11 22 5 8 6 0 6 9 8 8 8 9 9 8 8 8 8 9
5 6 3 11 12 17 11 9 9 7 8 6 4 4 1 6 5 6 8 9 10 5 4 6 13 11 11 11 9 9 6 9 9 13 8 4 8 4 10 12 6 0 2 2 2 3 6 2 2 10 8 5 3 2 2 1 1 3 5 5 4 11 13 11 9 5 9 4 6 9 16 16 12 3 2 3 4 6 6 9 8 8 8 8 8 7 8 8
4 4 2 5 14 12 9 9 5 11 9 5 8 13 8 7 7 8 11 7 7 5 12 8 7 15 12 7 2 9 1 6 2 14 13 14 11 7 11 11 13 4 2 3 1 2 3 2 8 9 6 4 8 6 4 3 3 1 3 4 5 7 5 8 7 1 11 11 12 14 22 9 11 4 8 7 6 6 7 6 7 9 6 6 8 9 9 9
5 2 3 4 10 10 14 10 12 9 13 15 13 16 12 9 8 17 16 15 10 10 3 7 12 2 2 2 9 8 10 14 6 4 4 4 8 7 9 5 6 2 5 3 1 4 1 2 5 8 10 11 11 11 9 4 3 3 2 5 6 7 10 6 10 9 15 9 18 18 16 13 19 10 7 9 9 10 9 7 6 7 7 8 7 7 9 9
4 6 3 4 8 10 9 1 6 10 9 11 12 13 12 14 5 12 14 18 13 11 14 3 4 3 10 6 9 10 13 10 12 4 4 6 7 6 5 3 3 0 1 7 8 7 0 2 2 5 8 10 7 6 7 5 3 5 4 6 10 10 10 11 10 11 13 13 17 17 17 20 19 22 24 25 23 22 19 17 14 6 6 8 7 9 10 10
5 7 3 5 2 12 11 9 9 8 14 10 9 6 17 19 11 10 12 10 11 17 10 11 3 5 4 10 13 13 14 10 11 13 13 13 8 7 4 4 5 9 10 4 3 2 1 2 7 11 13 11 9 14 16 16 16 16 17 20 13 8 7 11 12 16 13 16 22 12 18 18 20 21 27 30 27 23 19 19 18 15 10 9 10 11 11 8
7 4 6 2 4 2 9 11 14 13 12 13 14 7 16 15 14 13 7 17 8 9 7 1 16 17 16 17 10 12 8 15 10 12 9 15 11 12 12 13 13 11 9 4 4 4 6 9 13 10 19 19 20 21 20 21 20 20 20 17 19 21 18 17 18 20 20 18 21 14 18 21 23 21 21 25 26 23 20 17 17 17 15 10 7 9 10 9
5 5 6 7 4 4 6 7 9 13 12 14 7 13 17 17 20 17 12 4 10 8 14 14 12 18 22 21 16 14 10 8 8 10 12 10 17 13 9 3 14 16 14 9 4 5 4 12 14 17 20 19 19 22 24 26 23 23 21 22 23 23 23 23 26 27 25 24 24 25 28 32 26 23 24 26 23 23 22 21 21 21 22 19 11 8 10 6
5 3 3 7 3 6 11 10 6 5 10 9 11 8 13 18 21 15 11 13 10 10 11 22 20 18 20 21 21 19 19 20 20 16 10 13 11 6 10 12 6 2 7 11 5 3 10 6 14 14 14 19 22 23 22 24 22 25 24 22 22 22 26 28 26 22 21 24 29 30 29 27 21 25 26 25 25 23 24 27 29 28 23 21 17 12 12 8
3 4 2 5 8 7 8 7 5 7 8 5 9 10 11 16 17 14 17 11 19 16 12 24 20 23 17 19 21 25 23 23 25 26 25 18 17 11 11 2 16 6 6 5 5 3 13 8 6 7 12 15 15 21 23 24 23 25 24 23 22 25 27 25 22 23 22 23 23 20 18 18 22 24 23 24 24 25 27 29 28 24 22 18 15 9 9 11
3 2 3 3 7 4 10 6 10 9 11 6 9 10 8 10 13 11 16 13 19 18 18 18 19 18 17 21 24 24 23 25 26 27 23 22 23 18 16 10 15 13 8 12 8 8 9 5 6 8 14 17 14 19 22 21 19 20 20 25 33 32 27 21 21 21 22 23 21 18 21 21 23 20 18 20 24 26 26 23 26 24 19 18 11 10 12 13
Wind_Direction
16 13 11 9 8 6 5 4 3 1 357 356 354 354 352 351 352 351 350 348 346 346 344 339 339 332 322 320 318 337 323 275 266 249 226 238 135 148 109 117 122 135 154 195 204 190 195 201 211 208 201 130 206 232 143 178 214 177 210 208 258 246 251 3 321 2 105 2 124 230 186 200 239 123 176 60 263 233 240 184 227 185 198 102 143 121 125 132
14 13 11 9 8 6 5 2 1 358 355 353 351 349 348 348 346 346 344 343 343 343 342 339 335 334 322 317 322 326 330 259 257 259 249 110 127 137 126 117 142 137 191 166 211 199 236 203 207 175 194 216 162 218 136 190 135 193 236 227 247 260 270 217 3 357 19 293 42 168 174 228 255 147 152 171 219 203 236 239 193 218 169 96 133 127 134 145
13 11 9 7 6 4 2 360 357 355 351 350 349 346 345 342 341 341 339 338 338 341 339 334 334 330 328 320 316 315 313 253 257 258 215 339 110 142 134 127 134 172 191 300 288 279 266 314 324 180 200 250 164 200 191 191 171 224 248 260 265 283 312 289 286 306 329 2 297 290 184 194 247 177 98 211 247 205 216 222 212 211 212 167 162 147 152 156
11 9 6 6 5 2 359 357 354 350 349 349 345 343 340 337 337 337 335 334 336 335 336 335 328 332 323 323 326 311 253 294 261 127 56 79 67 88 109 136 146 174 248 241 255 277 292 293 256 249 226 221 234 181 164 189 147 202 171 224 249 153 350 345 41 25 33 55 306 286 350 216 238 231 142 204 244 247 245 216 205 209 217 184 169 160 162 167
6 5 4 3 2 360 355 353 352 349 347 345 343 339 336 334 334 331 331 328 329 330 331 331 330 326 330 325 321 281 271 300 241 64 71 69 83 77 87 124 157 197 219 287 304 259 264 262 240 233 241 256 240 195 233 178 196 2 229 250 258 272 217 341 73 44 59 42 349 286 279 237 224 226 193 206 222 249 214 230 214 212 206 187 167 173 170 174
2 0 0 359 357 356 353 349 349 347 344 343 341 336 333 332 331 325 324 325 321 324 327 327 327 326 322 329 320 240 272 275 169 138 71 84 99 86 98 109 88 298 254 244 247 257 251 237 236 219 229 230 246 225 218 205 162 237 247 240 246 252 269 131 202 101 104 191 211 249 262 280 226 252 214 212 224 240 191 106 34 226 208 195 168 163 176 181
357 356 356 355 354 352 350 347 345 344 343 341 338 334 331 330 326 326 321 321 320 319 323 323 322 324 325 309 225 234 241 277 99 180 159 89 104 121 125 108 98 206 226 233 232 258 220 252 225 245 240 252 253 249 244 120 161 234 257 285 299 309 250 268 169 136 190 226 239 252 30 273 239 246 221 231 233 242 251 289 160 102 61 107 151 172 181 187
352 352 353 351 351 349 347 344 342 341 341 339 336 333 331 327 326 322 320 317 318 320 320 318 321 319 337 289 251 220 221 256 64 174 143 161 146 129 153 156 156 226 220 225 245 232 264 257 266 268 255 246 330 320 57 139 177 224 260 247 253 68 268 262 149 190 207 232 249 287 275 242 233 248 291 254 244 236 231 235 200 165 133 140 162 179 188 193
349 347 348 347 346 345 342 340 339 339 339 337 334 331 327 326 322 319 318 316 316 319 318 316 310 327 200 301 225 298 256 75 218 133 160 157 136 130 170 158 198 174 226 225 237 268 312 260 259 310 294 332 340 320 254 179 254 216 243 266 302 286 268 244 218 195 205 228 205 226 242 250 248 286 264 256 252 246 246 228 210 182 186 175 177 184 187 195
343 342 342 344 343 341 339 338 335 335 335 334 332 329 324 323 322 318 316 313 311 319 311 312 319 302 307 191 256 253 224 217 114 137 114 136 138 145 235 316 175 203 229 228 228 230 230 302 38 20 33 299 269 259 259 179 252 101 299 315 302 287 293 275 249 225 202 213 184 212 240 245 238 170 270 238 242 235 233 233 226 187 204 205 194 187 193 194
338 338 339 342 341 339 338 336 334 332 330 330 329 325 322 318 317 317 314 310 313 309 311 305 357 193 203 187 253 249 149 240 226 108 163 145 166 194 172 175 192 244 230 236 217 243 352 318 73 28 40 232 354 293 168 246 13 304 323 310 280 269 255 250 250 236 212 232 198 201 240 259 242 166 238 257 127 204 211 223 217 212 204 207 209 197 196 202
330 331 336 338 338 337 336 334 331 328 327 328 327 323 318 314 312 311 312 309 308 305 293 308 222 262 299 247 237 243 213 65 191 139 134 214 137 110 42 267 219 258 257 242 217 102 110 13 43 188 232 100 253 327 248 11 312 335 5 306 278 274 268 241 226 227 185 236 177 187 295 258 215 229 237 248 204 215 203 213 211 213 209 202 208 211 203 207
320 326 329 331 332 335 334 331 326 323 325 325 323 321 315 311 308 307 309 307 308 300 288 284 175 247 303 257 236 90 269 117 119 144 116 86 104 137 120 217 252 244 273 267 326 117 131 234 227 227 259 283 283 252 190 270 266 259 236 248 287 276 263 250 231 206 176 209 143 138 272 252 220 222 244 249 204 208 217 219 214 213 209 203 206 213 216 210
318 318 323 324 327 331 330 326 321 320 321 321 319 315 311 306 305 305 304 299 298 300 267 223 247 205 242 256 165 258 51 342 146 202 160 152 154 150 196 202 231 255 224 252 44 19 133 2 302 247 36 216 247 59 310 251 165 238 265 235 243 307 262 256 220 171 178 136 156 174 234 265 271 212 232 245 184 187 208 214 212 212 213 211 213 215 215 213
315 316 315 322 325 325 324 319 317 319 317 316 314 310 304 300 302 300 299 303 288 305 221 236 239 216 209 252 69 126 268 324 213 193 153 179 174 128 197 176 133 229 75 75 117 314 353 173 5 218 239 46 355 298 271 255 241 216 336 245 237 218 270 285 41 150 183 171 190 141 252 253 263 268 235 226 175 181 204 209 213 216 218 217 217 219 219 220
310 311 311 317 321 326 322 319 313 313 313 312 310 305 297 289 295 293 295 276 290 278 238 222 186 245 314 271 212 87 161 199 202 96 90 48 239 261 128 133 148 165 193 74 127 233 226 189 225 241 2 197 216 240 287 301 265 219 199 250 253 239 266 288 203 203 182 112 207 180 230 246 241 251 58 114 159 175 203 211 210 217 221 222 221 219 221 225
308 305 312 315 319 323 321 311 312 311 310 310 308 300 290 284 284 287 284 278 263 223 225 305 156 155 274 128 100 221 208 152 69 153 109 334 69 163 118 138 190 154 34 135 209 120 185 222 138 356 213 239 208 203 253 256 268 254 200 230 230 240 268 256 4 245 200 145 192 219 236 248 251 243 175 163 177 187 213 217 219 223 221 223 226 219 217 220
302 307 309 311 317 322 315 310 319 312 313 312 310 297 290 284 285 145 202 224 243 202 255 204 263 291 245 93 239 233 65 125 193 110 97 54 188 264 208 190 141 169 142 191 152 215 162 221 139 224 255 210 208 217 181 231 222 229 231 264 262 241 226 249 256 199 193 200 223 207 235 257 256 258 266 231 204 211 220 228 239 248 244 245 241 234 219 220
298 302 306 307 317 318 311 315 314 316 317 320 305 292 274 267 275 228 203 154 154 163 182 176 188 178 254 216 140 100 4 116 100 136 190 168 191 264 217 310 139 171 193 172 219 176 169 242 182 244 236 223 209 203 211 228 243 262 269 268 267 271 276 271 270 133 176 197 217 220 224 240 251 252 252 261 250 235 238 232 236 244 249 249 245 242 234 219
292 301 304 311 313 315 311 311 313 317 324 329 333 327 248 250 166 179 229 207 220 218 242 204 194 237 182 140 147 30 164 245 149 239 125 171 127 139 207 213 183 227 232 206 149 199 147 180 194 213 235 228 220 215 229 241 244 259 266 267 267 271 274 266 273 211 202 200 216 225 236 246 257 252 248 258 261 259 256 249 240 234 239 243 246 242 237 228
288 292 302 306 312 314 310 310 310 316 323 317 312 307 347 1 307 294 360 245 237 258 269 267 200 214 246 106 116 151 161 212 243 170 177 164 182 131 197 182 180 218 222 221 194 17 42 216 217 228 239 238 235 232 230 237 241 246 253 263 274 269 270 267 284 146 222 188 239 227 237 245 253 256 253 253 251 251 253 255 254 254 250 254 252 249 238 234
281 286 295 303 308 312 308 305 310 312 315 285 277 318 2 64 355 294 281 281 235 225 237 243 261 253 129 153 163 186 71 271 215 165 132 159 191 181 187 179 178 220 166 199 252 207 214 221 230 234 248 258 260 262 261 266 273 276 270 281 288 267 274 282 272 144 237 170 263 269 266 261 264 266 263 252 249 245 243 244 251 249 257 258 258 249 243 206
280 280 289 298 303 307 303 304 311 313 310 328 338 329 25 326 312 287 277 263 269 250 247 240 233 236 246 182 168 132 213 219 244 164 181 177 167 216 164 190 210 220 197 178 207 221 247 230 241 251 254 255 261 243 258 277 267 255 263 271 255 263 271 290 150 224 198 199 233 227 268 265 273 269 262 256 252 249 241 244 252 250 251 255 255 247 233 198
271 279 281 291 306 302 301 313 308 296 332 348 301 27 9 337 323 311 252 253 279 220 208 221 222 219 222 217 183 181 211 236 217 225 169 162 182 165 235 206 219 216 219 211 215 225 233 224 196 224 233 236 245 239 231 240 258 227 224 238 257 253 243 232 267 184 218 239 268 314 283 267 243 260 261 255 243 246 246 241 248 255 253 251 258 261 217 192
260 265 273 282 296 310 300 321 305 3 309 282 154 12 15 339 304 317 299 281 233 243 7 326 136 240 216 40 130 167 228 253 217 94 175 167 158 138 228 201 223 230 221 226 238 240 249 236 112 192 130 218 224 244 218 212 263 257 214 207 237 249 261 265 274 338 337 294 172 177 305 260 214 225 243 263 190 225 233 222 236 247 254 251 250 246 233 204
256 258 264 271 290 308 304 302 57 326 309 359 14 324 360 357 289 299 307 277 279 161 33 216 132 253 97 204 118 183 37 256 63 166 155 204 59 192 118 217 187 238 217 229 238 244 240 158 186 215 209 212 216 233 221 176 253 274 245 206 237 250 253 265 278 319 270 241 312 352 188 293 160 254 238 238 195 226 237 214 229 233 245 252 243 243 218 190
250 247 250 260 286 317 304 20 347 310 295 95 357 354 315 328 326 320 277 257 276 153 167 326 166 281 28 44 131 86 192 236 82 75 155 22 185 166 220 211 194 245 179 94 324 249 121 137 121 187 207 224 230 249 230 205 245 263 131 342 102 280 261 250 238 208 251 323 264 163 115 279 288 245 226 227 214 221 230 231 233 238 234 241 248 248 208 178
240 239 233 239 254 234 320 308 315 318 355 7 345 331 330 285 283 232 141 288 274 102 122 229 214 312 24 308 316 186 291 80 127 211 11 289 38 201 216 223 212 204 176 145 241 23 173 183 190 208 200 194 221 229 221 180 202 233 297 51 74 90 90 54 222 257 252 329 267 169 158 252 262 260 187 191 229 229 236 235 237 238 235 223 234 248 214 179
230 225 220 213 222 223 287 269 287 285 71 25 5 316 346 331 299 296 257 253 135 107 306 108 307 76 63 355 289 346 232 357 281 42 294 29 329 25 213 249 261 269 203 193 238 244 330 175 219 196 152 221 225 45 40 195 213 246 149 69 81 70 62 172 207 254 312 282 256 163 174 216 274 261 219 206 201 216 225 230 236 236 235 220 219 227 211 185
221 215 202 187 161 215 236 228 240 71 93 52 311 311 288 305 232 252 221 250 47 246 84 86 151 180 136 131 225 227 248 15 33 121 201 183 157 29 294 7 285 259 267 281 259 260 202 187 261 172 204 218 101 75 72 25 59 137 103 90 36 317 213 309 160 139 351 253 253 178 192 182 269 276 186 157 211 204 212 230 235 240 245 235 210 211 197 190
213 205 193 166 191 220 275 245 173 119 110 136 236 269 255 251 233 213 242 227 358 169 81 152 149 122 149 159 214 201 224 172 177 157 138 270 149 217 284 334 201 14 319 300 279 257 184 82 153 251 43 86 117 60 26 211 22 122 109 159 333 311 37 7 314 113 193 269 253 177 187 189 232 315 191 193 187 195 195 206 212 223 228 232 211 207 200 184
215 202 186 175 201 258 204 257 150 153 155 176 226 279 221 240 235 226 240 77 269 188 169 166 163 167 189 214 216 157 174 189 166 190 187 187 170 174 200 193 151 145 268 210 254 125 244 233 198 28 252 153 157 125 7 29 94 166 133 114 157 254 56 278 80 260 204 244 92 177 173 229 232 237 57 243 220 207 211 215 202 206 216 224 220 205 193 176
219 207 191 186 186 218 229 116 159 149 162 218 93 284 127 228 249 226 240 113 263 111 251 112 175 185 189 177 236 149 185 204 155 197 175 180 183 237 217 222 197 182 241 189 225 257 273 236 187 206 28 221 132 191 201 319 215 167 165 165 137 249 226 260 244 221 263 257 261 214 178 220 262 262 209 230 221 207 205 220 219 193 199 208 213 198 175 171
226 212 201 193 195 200 201 146 157 152 179 147 94 97 50 219 244 93 219 197 239 4 29 14 160 195 169 194 205 148 212 235 147 200 178 191 185 238 212 222 222 253 198 277 217 175 289 288 216 130 244 169 188 205 203 204 155 198 184 154 197 185 178 232 219 241 239 261 303 262 100 239 91 250 181 209 219 206 198 206 217 201 196 209 199 171 158 160
233 221 215 200 201 196 203 153 147 155 134 100 80 172 194 232 251 284 281 269 235 248 169 1 163 180 236 259 188 188 184 215 180 146 194 177 213 199 202 195 213 215 112 206 233 97 225 246 220 177 99 152 187 216 210 92 9 211 167 184 296 228 162 235 240 257 290 338 305 202 213 236 240 349 212 210 216 221 203 204 205 211 221 164 139 161 173 181
246 229 207 204 189 196 184 155 150 153 172 142 160 188 220 217 232 144 232 293 296 273 114 308 189 202 234 234 235 200 254 238 186 162 241 215 224 220 202 164 187 193 182 198 168 225 204 260 123 153 25 167 196 46 200 158 216 214 124 203 212 58 190 265 302 285 322 310 264 252 272 262 304 272 241 229 208 214 213 214 207 211 222 191 188 188 187 188
248 215 200 207 206 180 172 160 153 153 199 167 156 217 229 260 236 280 347 39 277 322 200 243 202 204 199 232 202 192 224 30 236 154 234 148 258 232 212 220 173 191 208 185 263 218 225 254 79 168 224 333 304 288 325 7 129 96 197 241 41 20 103 152 246 349 230 235 272 289 266 287 307 288 71 187 204 208 201 206 209 211 214 197 205 204 197 197
282 225 251 235 201 161 162 156 139 138 165 188 191 215 188 234 224 230 272 293 298 294 286 236 274 181 237 236 239 174 171 192 177 169 255 170 266 163 199 235 181 192 203 214 217 259 213 265 229 341 44 339 342 1 318 227 137 157 188 327 125 245 268 235 126 253 261 254 269 269 280 268 254 262 286 332 200 205 204 211 211 212 210 207 214 221 216 193
241 253 258 227 152 158 154 151 151 147 161 188 213 244 249 251 285 222 243 272 294 294 269 262 277 208 267 257 281 172 162 205 157 199 209 197 243 167 187 177 216 196 198 200 217 253 107 237 241 329 70 63 17 122 211 214 309 126 37 331 181 91 210 151 193 201 170 256 269 272 283 273 254 243 268 223 189 197 202 211 210 203 208 205 212 216 212 185
252 250 238 46 151 145 144 144 142 157 152 203 205 229 318 304 262 259 274 280 291 269 252 272 262 274 274 277 285 281 205 218 182 222 206 170 228 189 186 187 174 202 201 194 206 198 256 137 250 131 292 334 258 179 202 170 192 225 226 261 248 197 227 99 291 205 206 228 225 261 274 270 268 175 219 196 185 194 198 204 209 218 220 215 209 209 206 200
228 251 272 109 133 130 126 127 142 180 199 286 242 236 247 249 282 262 232 235 259 260 266 275 306 284 309 306 276 279 270 220 220 234 209 257 228 288 176 187 162 200 186 240 222 169 200 177 236 128 273 211 245 152 199 206 199 194 189 215 210 186 187 221 250 220 234 216 232 230 251 265 275 55 100 168 196 182 197 191 201 218 221 225 237 234 214 210
261 245 230 139 141 140 137 167 211 198 197 191 210 200 228 214 256 244 263 277 230 247 30 300 263 265 267 266 274 286 296 305 293 276 216 255 226 245 2 217 216 154 147 182 200 205 192 177 211 218 223 248 259 245 207 224 240 237 205 231 211 208 195 205 243 232 269 247 262 245 266 257 248 29 17 248 173 178 180 188 198 215 222 224 219 211 215 207
198 242 71 148 162 157 164 207 193 205 221 245 323 304 262 259 241 230 229 216 251 226 250 236 242 257 247 251 258 269 267 270 268 265 299 317 302 315 359 331 7 280 296 333 313 321 71 144 223 247 271 298 314 41 27 52 159 296 277 252 183 216 211 221 234 218 244 201 210 238 243 256 276 89 259 220 179 169 177 178 194 211 216 214 213 218 219 225
253 249 207 209 181 176 189 205 199 224 231 265 218 243 214 236 220 246 242 210 205 176 226 228 246 222 249 245 246 252 211 296 214 256 271 282 278 343 359 2 352 320 287 354 21 292 225 248 209 253 259 283 282 304 283 45 27 306 251 245 234 261 256 249 264 15 263 226 243 247 253 264 276 139 204 195 167 183 197 215 202 220 224 211 221 224 223 223
302 276 196 190 209 197 206 199 231 217 217 227 223 235 234 239 218 231 232 234 209 226 248 235 225 123 251 183 250 239 236 223 268 259 267 281 263 294 308 335 359 41 61 207 99 303 315 318 170 231 236 242 241 223 246 279 242 220 256 265 262 238 241 271 250 233 249 233 239 244 263 263 270 277 265 245 244 246 249 241 233 229 217 217 225 231 228 220
214 259 170 211 200 226 251 171 260 222 221 222 242 241 236 249 251 236 237 254 237 235 225 235 22 207 230 231 248 243 244 219 213 236 178 205 250 262 217 319 103 105 257 58 26 45 270 324 270 233 241 250 256 284 304 313 299 265 246 229 244 245 245 240 254 252 247 255 246 248 257 268 270 275 273 269 265 268 273 272 268 265 252 236 225 226 228 222
316 261 188 236 191 229 232 212 219 175 228 187 243 138 227 233 230 254 194 255 205 235 241 225 202 193 213 214 235 247 240 245 219 228 233 250 218 238 219 214 292 283 279 317 80 61 105 258 266 284 274 264 260 270 275 275 273 272 272 267 265 263 257 254 246 253 253 263 258 250 260 262 260 262 265 271 274 273 270 273 278 273 254 224 225 229 235 240
244 239 269 294 270 203 228 237 227 222 227 201 228 193 233 234 213 232 191 230 235 202 221 204 222 217 224 225 215 239 205 234 212 228 220 239 260 250 261 252 252 235 233 238 148 168 179 236 228 237 246 248 248 250 250 257 256 255 252 254 259 257 254 250 247 250 246 245 259 261 258 260 257 253 265 269 272 277 279 274 269 271 271 252 224 222 226 226
276 333 289 11 316 326 266 334 289 263 249 216 236 217 238 234 235 218 217 223 208 222 204 248 217 219 226 229 230 244 226 253 222 216 223 231 223 237 256 276 242 235 233 237 199 167 145 228 237 227 244 239 237 237 237 242 244 247 243 243 245 249 250 248 249 243 241 249 254 255 252 254 259 266 260 263 272 276 279 281 278 273 269 267 247 241 256 211
270 316 293 2 306 299 300 298 287 305 270 246 250 218 242 234 241 238 222 221 233 223 194 237 234 226 220 225 226 231 226 224 236 244 222 221 244 192 243 221 270 287 195 216 183 212 188 218 191 225 236 240 234 237 236 238 237 247 248 246 245 249 251 245 247 252 251 246 245 248 253 259 261 259 262 267 267 271 275 272 270 270 270 266 263 259 265 257
306 312 7 317 313 300 298 271 255 260 257 245 255 255 253 258 257 248 249 221 230 234 200 229 227 237 227 230 227 232 229 228 233 235 246 236 245 185 220 213 204 223 181 205 172 223 192 245 205 218 237 238 230 237 236 235 232 237 244 250 246 240 242 241 240 235 238 243 245 247 250 251 253 256 258 261 265 264 262 265 269 269 266 268 269 269 269 268
293 257 260 260 273 263 276 288 285 292 260 237 239 258 258 269 266 271 272 253 252 248 251 245 237 243 240 234 236 236 234 234 236 239 242 242 243 241 219 210 190 194 188 201 179 185 188 181 211 219 241 240 231 230 233 236 237 235 231 236 238 238 237 244 248 251 246 242 246 246 245 241 243 246 256 260 257 256 257 259 261 268 277 271 271 262 259 264